Location: Brno
(49.2000°N, 16.6330°E)
Time: 09:52:54
(UTC+02:00)

Iridium 2 - Visible Passes

Search period start: 31 August 2016 00:00
Search period end: 10 September 2016 00:00
Orbit: 511 x 528 km, 85.5° (Epoch: 30 August)

Date Brightness Start Highest point End Pass type
(mag) Time Alt. Az. Time Alt. Az. Time Alt. Az.
31 Aug 3.8 03:25:42 10° N 03:29:05 68° NNW 03:29:05 68° NNW visible
01 Sep 4.3 03:11:53 10° N 03:14:55 54° NNE 03:14:55 54° NNE visible
02 Sep 4.8 02:58:03 10° N 03:00:46 42° NNE 03:00:46 42° NNE visible
02 Sep 6.0 04:35:20 10° WNW 04:35:50 11° WNW 04:35:50 11° WNW visible
03 Sep 5.3 02:44:15 10° N 02:46:39 33° NNE 02:46:39 33° NNE visible
03 Sep 6.0 04:20:57 10° NW 04:21:42 12° WNW 04:21:42 12° WNW visible
04 Sep 5.8 02:30:28 10° N 02:32:31 27° NNE 02:32:31 27° NNE visible
04 Sep 6.0 04:06:45 10° NW 04:07:36 13° NW 04:07:36 13° NW visible
05 Sep 6.1 02:16:42 10° N 02:18:26 22° NNE 02:18:26 22° NNE visible
05 Sep 6.0 03:52:38 10° NW 03:53:29 14° NW 03:53:29 14° NW visible
06 Sep 6.4 02:02:58 10° NNE 02:04:21 19° NNE 02:04:21 19° NNE visible
06 Sep 6.1 03:38:36 10° NNW 03:39:25 14° NW 03:39:25 14° NW visible
07 Sep 6.6 01:49:14 10° NNE 01:50:17 16° NNE 01:50:17 16° NNE visible
07 Sep 6.1 03:24:34 10° NNW 03:25:21 14° NNW 03:25:21 14° NNW visible
08 Sep 6.8 01:35:33 10° NNE 01:36:14 13° NNE 01:36:14 13° NNE visible
08 Sep 6.2 03:10:35 10° NNW 03:11:18 14° NNW 03:11:18 14° NNW visible
09 Sep 7.0 01:21:56 10° NNE 01:22:10 11° NNE 01:22:10 11° NNE visible
09 Sep 6.4 02:56:37 10° NNW 02:57:14 14° NNW 02:57:14 14° NNW visible
